Home   Weather   Ruda Śląska   Past weeks

Flag for Poland Past Weather in Ruda Śląska, Poland — Yesterday and Last 2 Weeks

Now
46 °F

Clear.


Feels Like: 42 °F
Forecast: 39 / 46 °F
Wind: 9 mph from South

Location: Katowice Airport

Current Time: Feb 28, 2017 at 2:07:44 am

Latest Report: Feb 28, 2017 at 1:30 am


Visibility: 10 mi

Pressure: 29.59 "Hg

Humidity: 66%

Dew Point: 36 °F

Location of Ruda ŚląskaLocation

Past Weather in Ruda Śląska — Graph

°F

Ruda Śląska Temperature Yesterday

Maximum temperature yesterday: 59 °F (at 1:30 pm)
Minimum temperature yesterday: 37 °F (at 7:00 am)
Average temperature yesterday: 48 °F

High & Low Weather Summary for the Past Weeks

 TemperatureHumidityPressure
High59 °F (Feb 27, 1:30 pm)100% (Feb 14, 11:30 pm)30.63 "Hg (Feb 14, 11:30 pm)
Low14 °F (Feb 13, 1:00 am)21% (Feb 27, 1:30 pm)29.30 "Hg (Feb 23, 10:00 pm)
Average36 °F78%30.06 "Hg
* Reported Feb 13 1:00 am — Feb 28 1:00 am, Ruda Śląska, Weather by CustomWeather, © 2017

Note: Actual official high and low records may vary slightly from our data, if they occured in-between our weather recording intervals... More about our weather records

Advertising

Ruda Śląska Weather History for the Previous 24 Hours

Scroll right to see more
 ConditionsComfort  
Time TempWeatherWind HumidityBarometerVisibility
1:00 am
Tue, Feb 28
48 °FClear.14 mph62%29.59 "Hg10 mi
12:30 am48 °FClear.9 mph62%29.62 "Hg10 mi
12:00 am48 °FClear.12 mph62%29.62 "Hg10 mi
11:30 pm
Mon, Feb 27
50 °FPassing clouds.13 mph54%29.65 "HgN/A
11:00 pm50 °FClear.15 mph58%29.65 "Hg10 mi
10:30 pm50 °FClear.14 mph54%29.65 "Hg10 mi
10:00 pm50 °FPassing clouds.10 mph54%29.68 "HgN/A
9:30 pm50 °FPassing clouds.14 mph54%29.68 "HgN/A
9:00 pm50 °FClear.13 mph54%29.71 "Hg10 mi
8:30 pm52 °FClear.14 mph50%29.71 "Hg10 mi
8:00 pm52 °FClear.14 mph50%29.71 "Hg10 mi
7:30 pm52 °FClear.15 mph47%29.71 "Hg10 mi
7:00 pm54 °FClear.10 mph41%29.71 "Hg10 mi
6:30 pm52 °FClear.10 mph41%29.71 "Hg10 mi
6:00 pm52 °FClear.7 mph35%29.71 "Hg10 mi
5:30 pm54 °FClear.13 mph35%29.74 "Hg10 mi
5:00 pm55 °FSunny.13 mph31%29.74 "Hg10 mi
4:30 pm57 °FSunny.10 mph29%29.74 "Hg10 mi
4:00 pm59 °FPassing clouds.10 mph27%29.74 "HgN/A
3:30 pm57 °FSunny.10 mph29%29.77 "Hg10 mi
3:00 pm59 °FPassing clouds.12 mph25%29.77 "HgN/A
2:30 pm59 °FPassing clouds.13 mph25%29.80 "HgN/A
2:00 pm59 °FPassing clouds.13 mph23%29.80 "HgN/A
1:30 pm59 °FSunny.13 mph21%29.83 "Hg10 mi
1:00 pm57 °FSunny.17 mph23%29.83 "Hg10 mi
12:30 pm55 °FSunny.14 mph26%29.86 "Hg10 mi
12:00 pm54 °FSunny.16 mph28%29.86 "Hg10 mi
11:30 am54 °FSunny.17 mph28%29.89 "Hg10 mi
11:00 am52 °FSunny.15 mph32%29.89 "Hg10 mi
10:30 am50 °FSunny.10 mph35%29.89 "Hg10 mi
10:00 am48 °FSunny.12 mph37%29.92 "Hg10 mi
9:30 am46 °FPassing clouds.12 mph40%29.92 "HgN/A
9:00 am45 °FSunny.10 mph42%29.92 "Hg10 mi
8:30 am43 °FPassing clouds.8 mph49%29.92 "HgN/A
8:00 am41 °FSunny.2 mph53%29.92 "Hg10 mi
7:30 am37 °FPassing clouds.3 mph65%29.95 "HgN/A
7:00 am37 °FSunny.5 mph60%29.95 "Hg10 mi
6:30 am39 °FPassing clouds.6 mph56%29.95 "HgN/A
6:00 am39 °FClear.6 mph56%29.95 "Hg10 mi
5:30 am39 °FClear.7 mph56%29.95 "Hg10 mi
5:00 am41 °FPassing clouds.10 mph57%29.95 "HgN/A
4:30 am41 °FOvercast.9 mph57%29.95 "HgN/A
4:00 am41 °FPassing clouds.12 mph57%29.95 "HgN/A
3:30 am41 °FPassing clouds.12 mph57%29.95 "HgN/A
3:00 am41 °FPassing clouds.13 mph57%29.95 "HgN/A
2:30 am39 °FClear.13 mph61%29.95 "Hg10 mi
2:00 am39 °FClear.13 mph61%29.95 "Hg10 mi
Weather by CustomWeather, © 2017

See weather overviewHow to use our weather pages